Regional Weather Roundup
Issued by NWS

Home | Current Version | Previous Version | Text Only | Print | Product List | Glossary Off
Versions: 1 2 3 4 5 6 7 8 9 10 11 12 13 14 15 16 17 18 19 20 21 22 23 24 25 26 27 28 29 30 31 32 33 34 35 36 37 38 39 40 41 42 43 44 45 46 47 48 49 50

000
ASUS43 KIND 190359
RWRIN

WEATHER ROUNDUP FOR INDIANA
NATIONAL WEATHER SERVICE INDIANAPOLIS IN
1100 PM EST SAT NOV 18 2017

NOTE: "FAIR" INDICATES FEW OR NO CLOUDS BELOW 12,000 FEET WITH NO
SIGNIFICANT WEATHER AND/OR OBSTRUCTIONS TO VISIBILITY.

* - STATION DOES NOT REPORT WEATHER SUCH AS PRECIPITATION OR FOG.

+ - STATION NOT QUALITY CONTROLLED BY THE NATIONAL WEATHER SERVICE.
    USE DATA WITH CAUTION...ESPECIALLY DEWPOINT AND RELATIVE
    HUMIDITY OBSERVATIONS.

INZ001>003-010>013-019-020-190500-
NORTHWEST INDIANA

CITY           SKY/WX    TMP DP  RH WIND       PRES   REMARKS
GARY /AIRPORT/ CLOUDY    41  28  60 NW12G23   29.79R
MONTICELLO +   CLOUDY    38  32  79 NW22G30   29.75R WCI  27

$$

LMZ046-743>745-190500-
SOUTHERN LAKE MICHIGAN

STATION/POSITION TIME  TEMP    WIND        PRES    WAVE
                       AIR SEA DIR/SP/G            HT
                 (UTC) (F)     (DEG/KT/KT) (MB)    (FT)
BURNS HARBOR     0340   41     320/ 27/ 31 1007.8R
MICHIGAN CITY    0330   41     320/ 28/ 31   N/A

$$

INZ004-005-014>016-021>024-190500-
NORTH CENTRAL INDIANA

CITY           SKY/WX    TMP DP  RH WIND       PRES   REMARKS
GOSHEN         CLOUDY    39  33  79 NW18G31   29.66R WCI  30
PERU/GRISSOM   CLOUDY    40  36  86 NW17G26   29.70R WCI  31
SOUTH BEND     CLOUDY    39  34  82 NW17      29.70R WCI  30

$$

INZ006>009-017-018-025>027-190500-
NORTHEAST INDIANA

CITY           SKY/WX    TMP DP  RH WIND       PRES   REMARKS
FORT WAYNE     CLOUDY    42  37  82 NW16      29.63R
KENDALLVILLE + CLOUDY    39  36  86 N17G29    29.61R WCI  30

$$

INZ028-029-035-036-043>045-051>053-190500-
WEST CENTRAL INDIANA

CITY           SKY/WX    TMP DP  RH WIND       PRES   REMARKS
LAFAYETTE      CLOUDY    38  33  82 NW10G21   29.79R WCI  31
TERRE HAUTE    CLOUDY    40  30  67 NW15G26   29.85R WCI  32

$$

INZ030>032-037>040-046>048-054>057-064-065-190500-
CENTRAL INDIANA

CITY           SKY/WX    TMP DP  RH WIND       PRES   REMARKS
INDIANAPOLIS   CLOUDY    39  33  79 NW24G35   29.78R WCI  28
-EAGLE CREEK   CLOUDY    40  33  76 NW22G35   29.76R WCI  30
KOKOMO +       CLOUDY    39  37  92 NW22G28   29.71R WCI  29
MT COMFORT *+  CLOUDY    37  37 100 NW20G28   29.73R WCI  27
SHELBYVILLE    LGT RAIN  40  35  83 NW21G36   29.73R WCI  30

$$

INZ033-034-041-042-049-050-058-059-190500-
EAST CENTRAL INDIANA

CITY           SKY/WX    TMP DP  RH WIND       PRES   REMARKS
MUNCIE         LGT RAIN  42  38  85 NW20G28   29.66R
RICHMOND +     CLOUDY    37  37 100 NW15G24   29.64R WCI  28

$$

INZ060-061-067>069-081>083-085>088-190500-
SOUTHWEST INDIANA

CITY           SKY/WX    TMP DP  RH WIND       PRES   REMARKS
EVANSVILLE     CLOUDY    43  37  79 NW13G22   29.91R
HUNTINGBURG +  CLOUDY    42  35  76 NW15G23   29.88R

$$

INZ062-063-066-070>080-084-089>092-190500-
SOUTH CENTRAL AND SOUTHEAST INDIANA

CITY           SKY/WX    TMP DP  RH WIND       PRES   REMARKS
BLOOMINGTON    CLOUDY    40  32  73 VRB7G20   29.81R WCI  35
MADISON *+     CLOUDY    39  37  93 W13G24    29.77R WCI  32
SEYMOUR +      CLOUDY    43  37  81 NW16G25   29.78R

$$





USA.gov is the U.S. government's official web portal to all federal, state and local government web resources and services.